Theta_e
314 315 315 314 315 315 314 315 316 315 315 315 317 317 317 319 319 324 331 334 345 356 353 353 353 350 347 345 342 338 338 338 338 342 343 342 334 327 323 320 318 314 314 314
314 317 315 314 313 313 314 315 316 315 314 314 316 316 317 317 318 319 327 332 336 347 354 353 354 352 349 347 344 341 340 340 339 343 342 342 334 327 324 320 317 315 315 315
317 316 315 312 313 313 314 315 315 315 315 314 315 317 318 318 318 319 320 323 329 335 346 350 353 354 351 349 346 344 341 341 341 344 342 340 333 325 324 322 319 316 317 316
314 314 313 313 314 314 315 314 314 315 315 317 316 317 319 318 318 319 320 322 325 332 335 345 350 353 350 349 347 345 342 342 343 345 342 340 336 328 325 324 322 317 317 317
316 313 312 314 315 314 315 314 314 315 317 316 318 317 318 317 319 320 320 321 323 326 332 339 348 348 348 348 346 345 343 343 343 343 341 339 334 329 326 325 321 320 318 318
315 314 313 315 314 313 314 315 316 315 317 319 319 318 318 319 319 320 321 320 321 323 328 334 345 346 345 345 344 344 342 341 341 343 337 335 331 328 326 325 324 322 321 319
318 317 317 317 318 316 315 318 319 319 319 320 318 318 319 320 320 321 322 319 318 318 323 326 333 343 344 342 343 343 341 337 337 338 334 331 329 326 324 324 324 323 323 323
319 320 316 316 318 321 320 319 319 319 319 318 316 318 319 323 324 324 324 325 324 323 322 321 330 337 342 341 342 340 336 339 335 336 332 329 327 326 326 323 324 324 324 323
316 317 313 316 314 316 320 319 319 320 318 320 319 319 319 326 325 325 325 326 325 325 325 324 320 329 339 342 340 337 334 338 334 334 331 327 326 326 325 324 322 323 323 322
311 314 312 311 313 313 318 315 323 321 324 323 320 321 323 326 325 323 322 322 323 324 325 326 325 322 327 339 340 336 333 335 334 332 330 328 326 325 324 323 323 323 322 322
305 311 311 310 311 312 313 317 317 321 323 324 322 322 324 323 321 321 320 320 320 321 324 326 326 323 320 328 339 337 334 332 333 331 329 327 326 325 324 322 322 322 322 322
303 309 309 308 307 306 308 309 311 323 323 323 323 324 314 315 317 319 316 318 318 319 323 326 327 326 323 319 333 338 334 332 332 330 329 327 325 325 324 323 323 323 323 323
301 305 301 303 310 309 309 306 305 309 314 320 326 324 313 312 314 313 314 315 317 320 323 325 328 328 327 320 328 336 334 333 332 328 328 326 325 325 324 323 323 324 323 323
304 305 302 299 303 306 303 304 302 303 309 316 318 319 317 314 310 310 312 313 317 320 324 323 325 328 330 328 328 331 331 331 329 327 327 326 325 325 324 323 324 324 324 323
303 302 301 302 301 301 301 301 301 301 302 304 307 306 309 310 305 305 310 311 317 320 323 324 324 323 324 329 329 329 329 329 328 327 327 327 325 325 325 326 326 325 324 324
302 302 302 303 302 302 302 302 301 302 302 302 302 302 303 303 305 307 309 311 315 318 322 324 324 323 323 323 326 330 329 328 328 329 328 327 326 326 326 326 325 324 324 324
303 303 302 303 301 302 303 303 303 302 302 302 302 302 303 303 304 307 308 307 309 315 319 322 322 322 322 322 322 325 330 330 328 329 329 328 328 327 327 328 327 326 326 325
304 303 303 303 302 304 303 302 302 303 303 303 303 303 303 303 304 304 304 305 308 312 317 319 320 322 322 323 322 323 326 330 330 329 328 329 328 328 328 328 327 328 327 326
301 303 304 305 304 303 302 302 302 303 304 304 304 303 304 304 304 304 305 306 308 311 316 317 318 319 322 321 322 321 323 326 329 330 329 328 328 328 328 328 328 327 326 325
300 302 304 303 305 304 303 303 303 303 305 303 304 304 304 304 304 304 305 305 306 307 309 316 317 317 319 320 320 320 319 320 321 323 326 328 327 327 327 327 325 323 322 321
303 303 304 305 305 304 303 303 303 304 305 305 306 306 308 307 306 307 306 308 310 310 310 315 317 317 318 320 320 319 317 317 316 317 319 320 322 324 323 321 318 319 317 315
304 306 306 305 305 305 303 304 304 305 305 305 305 305 305 305 306 307 308 306 307 311 312 312 315 316 318 320 318 316 316 314 314 317 316 314 318 317 316 317 313 313 312 311
305 304 305 305 306 305 304 305 306 306 306 305 305 305 305 305 305 305 305 306 305 306 307 309 311 314 316 319 318 316 314 314 313 314 312 313 312 311 311 311 310 309 309 311
302 302 304 304 305 304 304 305 305 304 304 305 305 305 305 305 305 304 305 305 305 304 305 307 311 312 315 317 318 317 316 315 314 314 312 312 312 310 309 308 308 308 308 308
304 304 305 306 306 305 305 305 305 305 305 305 304 304 304 304 304 304 304 305 305 304 305 306 309 312 313 314 317 317 315 315 314 313 314 313 313 313 312 312 310 308 304 304
303 304 306 308 305 305 305 304 304 304 305 305 305 304 304 304 304 304 304 304 304 304 305 306 308 311 312 313 313 314 315 314 313 311 309 308 308 307 306 305 304 303 302 301
Wind_Speed
5 7 10 11 14 13 9 7 9 4 5 5 11 10 14 14 13 16 22 21 13 15 17 21 22 23 23 24 30 35 37 36 34 27 24 21 20 22 20 20 19 18 17 15
5 11 14 13 10 11 10 11 10 10 9 6 10 13 14 16 14 15 16 17 20 15 14 18 25 29 29 31 36 37 38 38 40 34 27 19 22 18 19 21 20 19 17 16
12 5 14 10 8 10 11 13 9 11 10 5 9 17 14 14 14 16 20 21 21 23 18 18 22 32 32 33 38 35 41 45 43 40 32 26 26 19 18 20 20 21 18 17
8 8 10 10 12 13 13 13 14 13 7 9 3 9 7 7 10 12 19 19 21 22 16 18 21 24 30 37 34 43 43 43 43 44 38 35 32 25 20 22 20 23 20 18
9 7 10 11 16 16 14 12 15 13 9 5 11 7 7 5 11 14 16 18 19 20 16 18 20 28 37 29 33 38 45 52 48 48 45 39 31 26 22 22 23 23 22 19
5 4 2 7 9 13 4 5 3 1 4 11 13 9 11 9 8 9 10 14 15 15 16 18 24 28 27 28 32 39 45 49 47 50 45 44 35 30 25 26 25 21 20 20
6 2 3 6 6 4 10 7 6 8 8 15 6 9 16 10 8 7 11 12 11 9 12 15 18 21 25 32 37 36 40 41 47 49 43 45 40 40 38 36 28 25 21 19
3 5 6 8 4 4 5 11 10 12 13 14 4 10 7 6 8 8 8 11 10 10 10 12 16 19 27 32 36 36 37 40 41 48 45 45 41 38 33 39 32 28 24 22
3 4 2 4 6 4 3 6 6 8 4 8 9 14 8 10 15 16 16 15 17 16 13 13 12 18 23 27 33 38 38 40 40 45 41 44 41 38 35 36 41 33 29 25
3 6 1 4 3 2 3 3 4 5 12 15 10 10 3 10 13 14 15 16 17 17 17 13 12 14 20 28 31 32 35 42 47 43 36 34 42 41 37 38 37 33 30 27
3 3 2 2 7 5 2 2 1 3 4 10 13 9 2 6 9 11 13 15 16 17 18 16 13 14 18 25 30 32 33 35 36 42 43 42 39 35 37 38 38 35 32 29
4 3 5 3 7 9 3 3 1 4 10 4 7 5 5 5 7 9 13 15 17 17 17 16 16 19 16 21 29 32 31 33 35 34 36 37 34 33 36 36 37 38 35 31
2 2 4 4 4 2 3 3 3 0 0 6 7 5 4 9 10 12 13 15 17 17 19 18 16 14 14 11 21 25 27 30 30 29 32 32 32 36 36 37 40 38 37 32
1 2 4 5 4 3 4 5 3 3 3 4 10 10 11 10 14 17 16 15 15 16 15 16 16 14 14 8 7 18 20 24 25 26 29 29 33 36 40 40 41 38 36 33
1 4 3 8 11 11 13 13 9 10 10 7 10 15 17 17 20 18 13 15 14 14 14 13 14 14 15 12 4 5 15 20 26 29 33 37 40 37 37 36 37 40 36 31
2 4 4 12 14 16 19 17 15 15 15 16 17 24 17 19 15 13 12 12 12 12 12 11 12 13 15 15 9 4 9 15 21 25 27 29 35 39 39 39 39 38 34 30
6 5 4 4 2 4 12 18 19 10 12 13 14 18 11 15 14 14 14 13 16 12 11 9 9 11 15 18 15 6 6 11 16 20 23 27 33 37 36 32 29 29 27 26
10 8 5 5 4 6 3 2 2 15 13 18 19 18 17 18 16 16 16 17 15 13 11 5 6 10 15 15 20 13 2 6 11 15 17 21 26 30 29 29 28 25 23 23
14 10 5 4 8 11 16 10 10 10 21 13 19 20 20 17 15 21 15 15 13 15 11 12 4 7 9 15 15 16 10 5 3 9 14 18 23 25 27 27 25 22 21 19
7 10 6 4 4 5 1 6 7 2 17 6 9 12 14 11 11 13 13 15 16 18 19 17 18 10 8 7 13 20 16 9 7 5 3 10 18 20 21 22 21 19 19 17
4 4 10 10 8 9 10 14 2 11 5 3 4 5 4 6 8 12 13 13 13 16 17 13 14 14 6 6 7 14 17 15 10 9 7 8 11 13 16 18 19 21 20 19
6 4 5 5 7 13 14 6 15 13 6 7 7 7 6 5 8 8 9 11 12 10 11 10 10 7 11 5 11 16 14 10 13 22 20 14 15 16 17 20 17 18 20 17
7 12 5 9 7 9 6 10 8 12 14 15 13 14 15 13 15 14 13 12 11 14 11 10 11 10 7 9 10 13 15 11 10 17 18 18 16 15 16 20 21 12 9 6
7 9 7 9 18 23 24 20 16 18 25 25 24 22 20 21 20 19 16 13 10 13 14 9 7 9 6 11 12 12 15 17 14 14 17 16 12 13 11 9 11 10 5 3
11 9 15 19 23 22 23 22 22 22 22 22 19 19 17 18 19 17 14 14 12 10 12 10 10 5 7 3 11 12 13 13 11 13 13 9 5 3 3 4 2 2 6 3
9 13 6 11 17 14 19 20 19 19 18 18 18 16 15 14 14 13 13 16 15 9 11 12 11 7 5 3 3 7 12 14 14 12 13 15 18 12 9 9 4 2 5 7
Wind_Direction
173 196 213 217 217 234 254 263 262 242 248 284 274 265 274 279 288 273 234 216 206 196 220 210 201 192 185 175 182 196 197 200 198 187 178 180 182 184 183 178 173 166 157 147
164 225 216 222 217 221 234 253 253 279 260 218 276 258 263 266 263 263 256 236 215 217 199 201 197 189 187 185 187 194 194 202 199 193 183 184 181 188 185 180 175 169 160 151
216 205 218 198 200 208 224 232 239 259 292 249 270 272 241 252 233 249 255 253 242 224 210 203 198 193 188 188 191 188 196 203 199 196 189 187 184 180 180 181 179 173 166 159
233 234 202 189 214 207 240 212 235 254 261 273 232 276 251 257 238 236 239 249 240 228 216 207 204 200 192 198 191 194 195 198 198 202 198 194 186 182 189 183 184 177 172 166
224 200 194 217 227 202 247 214 217 241 249 255 235 260 264 237 250 244 243 246 253 241 215 210 201 201 202 195 189 189 194 200 198 202 199 199 189 189 184 182 185 182 176 172
305 313 254 258 250 202 202 184 112 136 221 245 245 243 265 248 252 259 247 251 243 241 231 223 210 207 204 197 195 194 193 196 194 201 198 197 188 183 179 182 183 183 178 176
332 49 3 19 274 177 196 185 229 226 213 245 226 233 257 296 347 345 327 329 345 324 257 237 221 213 206 196 200 198 194 190 194 197 195 197 195 196 192 187 183 181 180 180
343 202 16 350 16 316 240 220 217 233 239 253 165 241 246 40 25 18 10 356 356 352 330 291 248 227 213 204 197 195 192 194 191 195 197 197 197 197 192 193 187 187 186 186
288 242 338 332 338 326 144 224 345 246 271 239 237 241 180 42 29 23 21 15 2 351 342 323 303 256 229 213 203 199 193 195 195 197 193 194 196 194 193 195 199 194 190 185
14 280 69 320 318 69 5 19 205 220 230 235 220 240 245 11 8 5 13 10 0 354 347 336 318 293 254 226 213 206 200 195 196 195 195 195 193 194 195 197 195 195 192 186
354 245 286 268 13 304 295 217 313 282 270 249 244 216 23 7 6 0 2 2 357 350 347 342 332 307 274 244 222 211 203 199 196 189 193 191 193 191 192 200 200 198 192 189
13 291 274 41 117 53 59 65 60 251 214 259 281 198 70 41 15 7 7 1 356 349 347 349 342 328 308 243 227 214 204 200 203 197 189 189 184 187 189 197 200 197 193 191
350 217 284 180 211 199 61 45 19 268 141 238 255 195 64 26 15 7 357 352 353 353 353 356 352 342 333 274 230 218 209 205 202 191 186 183 182 180 189 196 198 196 194 190
214 256 271 294 347 335 279 273 292 271 249 262 248 289 280 319 341 342 347 347 348 354 351 360 1 356 352 360 245 219 210 202 190 182 180 178 181 183 190 194 195 195 193 188
311 282 265 280 289 283 284 271 262 244 249 244 284 284 282 294 308 305 309 338 340 356 350 350 356 2 5 9 14 213 205 193 185 182 186 188 188 189 188 188 193 191 190 188
161 263 268 282 266 267 277 268 250 248 249 260 271 273 282 285 291 282 286 317 334 335 353 343 353 359 1 10 359 290 210 194 192 195 196 189 183 182 184 186 187 189 187 187
237 258 228 261 241 269 272 263 249 235 235 227 249 258 286 284 277 276 289 301 302 309 331 346 347 354 354 353 1 325 247 211 200 200 198 196 188 181 182 179 177 179 182 182
235 227 245 266 227 245 20 275 234 208 238 238 255 262 261 261 272 285 282 282 283 288 288 337 352 6 9 11 3 11 149 208 204 203 201 198 191 183 176 174 176 173 178 182
222 218 227 224 222 287 283 234 225 223 267 263 252 256 261 270 282 272 268 262 266 276 278 268 295 347 16 25 25 33 70 63 193 195 192 189 184 178 172 169 171 169 170 172
167 216 210 184 240 262 360 193 218 233 277 229 251 270 281 275 261 281 292 271 273 278 278 268 257 284 334 37 64 53 36 72 68 63 97 179 182 177 169 165 158 165 161 165
158 168 216 229 249 261 254 246 178 224 272 156 285 301 274 249 265 306 306 306 298 280 277 285 256 251 257 142 131 74 66 45 60 77 90 101 126 143 145 146 157 155 154 157
241 219 218 222 239 263 226 208 221 246 265 237 262 267 261 271 290 303 297 316 319 314 310 305 283 253 224 199 115 104 92 96 69 84 79 76 114 122 130 136 132 147 151 150
249 223 257 225 237 254 207 246 271 279 287 291 274 273 271 267 282 291 297 296 312 312 313 316 292 289 244 219 168 131 135 145 113 104 93 96 91 97 129 137 139 132 114 124
253 251 244 275 252 257 265 256 253 258 269 273 272 269 271 268 265 272 283 276 281 299 303 314 307 293 272 228 217 191 172 158 137 130 140 130 138 148 134 107 99 115 118 213
259 278 252 258 267 272 267 267 272 271 269 268 263 265 259 253 255 261 267 268 269 278 289 295 280 273 299 243 234 220 201 187 172 155 144 156 156 98 136 80 60 134 203 238
265 264 262 278 294 294 280 279 270 260 254 261 268 264 251 248 252 249 253 260 265 263 266 258 258 239 270 286 237 215 204 186 166 155 149 160 159 163 163 156 155 248 240 237